Regional Weather Roundup
Issued by NWS Upton, NY

Current Version | Previous Version | Graphics & Text | Print | Product List | Glossary Off
Versions: 1 2 3 4 5 6 7 8 9 10 11 12 13 14 15 16 17 18 19 20 21 22 23 24 25 26 27

000
ASUS41 KOKX 230209
RWROKX

REGIONAL WEATHER ROUNDUP
NATIONAL WEATHER SERVICE NEW YORK NY
1000 PM EDT SAT JUL 22 2017

NOTE: "FAIR" INDICATES FEW OR NO CLOUDS BELOW 12,000 FEET WITH NO
SIGNIFICANT WEATHER AND/OR OBSTRUCTIONS TO VISIBILITY.

NYZ071-072-176-178-NJZ106-104-230300-
NEW YORK CITY METRO AREA

CITY           SKY/WX    TMP DP  RH WIND       PRES   REMARKS
Central Park   CLOUDY    79  72  79 VRB5      29.80S
Bronx Bot Gard   N/A     77  70  78 E3        29.80R
LaGuardia APRT CLOUDY    79  75  87 S10       29.76F
Kennedy INTL   LGT RAIN  77  75  93 S12       29.79S
Breezy Point     N/A     73 N/A N/A S8          N/A
Newark/Liberty LGT RAIN  77  74  90 S6        29.77S
Teterboro      NOT AVBL
$$

NYZ177-179-078>081-230300-
LONG ISLAND NEW YORK

CITY           SKY/WX    TMP DP  RH WIND       PRES   REMARKS
Jones Beach      N/A     75 N/A N/A SE2         N/A
Matinecock PT    N/A     79 N/A N/A S2          N/A
Farmingdale    LGT RAIN  78  69  73 S7        29.79S
MacArthur/ISP  LGT RAIN  79  70  74 S7        29.78S
Shirley        LGT RAIN  77  71  82 SE3       29.79S
Mt Sinai Harb    N/A    N/A N/A N/A S6          N/A
Westhampton    CLOUDY    74  68  81 CALM      29.79R
East Hampton   FAIR      72  67  86 CALM      29.79S
Montauk          N/A     75  69  81 CALM      29.81R
$$

NYZ052-065-067-230300-
HUDSON VALLEY

CITY           SKY/WX    TMP DP  RH WIND       PRES   REMARKS
White Plains   PTCLDY    75  66  73 SE3       29.79S
Larchmont Harb   N/A     77 N/A N/A SE3         N/A
Croton O-T Hud   N/A     77 N/A N/A CALM        N/A
Newburgh       MOCLDY    75  66  73 SE7       29.80S
Montgomery     MOCLDY    73  68  84 W3        29.79R
Poughkeepsie   CLOUDY    72  66  81 N6        29.77R
Albany         NOT AVBL
$$

NJZ001-105-106-008-010-013-015-019>022-104-230300-
NEW JERSEY

CITY           SKY/WX    TMP DP  RH WIND       PRES   REMARKS
Newark/Liberty LGT RAIN  77  74  90 S6        29.77S
Teterboro      NOT AVBL
Caldwell       LGT RAIN  80  68  66 SE5       29.78R
Somerville     RAIN      73  73 100 SW3       29.76S FOG
Linden         DRIZZLE   75  73  91 CALM      29.76F
Perth Amboy      N/A     75 N/A N/A SE5         N/A
Sussex         LGT RAIN  73  72  96 CALM      29.79R
Andover          N/A     72  69  90 CALM      29.79S
Trenton        CLOUDY    75  74  96 SE7       29.75S
Millville      CLOUDY    78  75  90 SW3       29.79R
Atlantic City  MOCLDY    83  74  74 SW8       29.78R
Wrightstown    NOT AVBL
Toms River     CLOUDY    75  74  96 S3        29.78R FOG
Belmar         LGT RAIN  74  72  93 NE3       29.78F
$$

PAZ047>061-062-071-230300-
EASTERN PENNSYLVANIA

CITY           SKY/WX    TMP DP  RH WIND       PRES   REMARKS
Philadelphia   CLOUDY    82  70  66 SW13      29.76F
Allentown      NOT AVBL
Scranton       CLOUDY    72  70  93 E3        29.80R FOG
$$

CTZ002-004>006-009-010-012-RIZ004-006-007-MAZ004-011-015-230300-
SOUTHERN NEW ENGLAND
 IN CT

CITY           SKY/WX    TMP DP  RH WIND       PRES   REMARKS
Bradley INTL   NOT AVBL
Hartford       PTCLDY    75  69  81 CALM      29.79R
Danbury        CLOUDY    74  68  81 VRB3      29.81S
Wtrbury/Oxford CLOUDY    73  63  68 S6        29.81F
Bridgeport     CLOUDY    76  69  79 E6        29.78S
Meriden        CLOUDY    73  67  81 CALM      29.78S
New Haven      CLOUDY    76  65  68 CALM      29.79S
Chester        FAIR      75  64  69 CALM      29.81R
Groton         CLOUDY    72  65  78 CALM      29.79R
Wilimantic     CLOUDY    75  70  84 CALM      29.80R

 IN RI

CITY           SKY/WX    TMP DP  RH WIND       PRES   REMARKS
Providence     NOT AVBL
Block Island   CLOUDY    73  69  87 S5        29.80S
Westerly       CLOUDY    74  67  78 CALM      29.80R
 IN MA

CITY           SKY/WX    TMP DP  RH WIND       PRES   REMARKS
Boston         CLOUDY    75  65  70 S6        29.77S
Worcester      MOCLDY    71  64  78 SW6       29.82S
Westfield      CLOUDY    70  66  87 CALM      29.79R
Provincetown   MOCLDY    73  67  81 S6        29.78F
Nantucket      MOCLDY    66  65  96 SE5       29.80F
$$

ANZ330-335-338-340-345-350-353-355-230300-
COASTAL MARINE OBSERVATIONS


STATION/POSITION TIME  SKY/WX   TEMP    WIND        PRES    VSBY  WAVE
                                AIR SEA DIR/SP/G                  HT/PER
                 (UTC)          (F)     (DEG/KT/KT) (MB)    (MI)  (FT/S)
NY HARB ENTRANCE 0050            77 77  190/  8/ 10 1007.5          2/ 9
20 S FIRE ISLAND 0150            77 77  240/  6/  8 1008.5          2/ 9
GREAT SOUTH BAY  0115            79 83  140/  6/  8   N/A
23 SSW MONTAUK P 0050            77 78              1008.8          3/11
15 E BARNEGAT LI 0130               79                N/A           3/ 6
HUDSON CANYON    0050            80 81  220/  2/  4 1007.7          3/ 6
KINGS POINT      0130            78 74  180/  4/  6 1008.3
EXECUTION ROCKS  0145            79     110/  4/  4   N/A
CENTRAL LI SOUND 0130            76     110/  6/  8   N/A           0
EASTERN LI SOUND NOT AVBL
ROBBINS REEF     0124                   160/ 10/ 11 1008.8
$$


>>>>>>>>>>>>>>>>>>>>>>>>>>>> KEY <<<<<<<<<<<<<<<<<<<<<<<<<<<
>                                                          <
>     SKY/WX - Sky Condition/Present Weather               <
>     TMP    - Temperature in Fahrenheit                   <
>     DP     - Dew Point in Fahrenheit                     <
>     RH     - Relative Humidity in Percent                <
>     WIND   - Direction (from) and Speed in MPH           <
>     PRES   - Mean Sea Level Pressure (inches of Hg)      <
>     WCI    - Wind Chill Index                            <
>     VSB    - VISIBILITY IN MILES                         <
>     HX     - HEAT INDEX                                  <
>     TC     - TEMPERATURE IN CELSIUS                      <
>     VRB    - VARIABLE WIND DIRECTION                     <
>                                                          <
>>>>>>>>>>>>>>>>>>>>>>>>>>>> KEY <<<<<<<<<<<<<<<<<<<<<<<<<<<




USA.gov is the U.S. government's official web portal to all federal, state and local government web resources and services.